View from above orbital plane
|
View from above satellite
|
Ground track
|
The orbit data is extracted from the following two-line orbital elements,
1 20580U 90037B 19342.88042116 .00000361 00000-0 11007-4 0 9996
2 20580 28.4682 146.6676 0002639 185.9222 322.7238 15.09309432427086
Epoch (UTC): | 08 December 2019 21:07:48 |
Eccentricity: | 0.0002639 |
inclination: | 28.4682° |
perigee height: | 536 km |
apogee height: | 540 km |
right ascension of ascending node: | 146.6676° |
argument of perigee: | 185.9222° |
revolutions per day: | 15.09309432 |
mean anomaly at epoch: | 322.7238° |
orbit number at epoch: | 42708 |
The dashed part of the orbit path shows where the satellite is in the earth's shadow,
|
|